Simultaneous Nadir Overpasses (SNOs) Predictions

Prediction of SNOs between LANDSAT-8 and NPP Satellite Orbit:

Table of predicted SNOs for the next 14.0 days since TLE Epoch: 11/6/2021
Index Date (LANDSAT-8) Time (LANDSAT-8) Lat,Lon (LANDSAT-8) SZA (LANDSAT-8 ) Date (NPP) Time (NPP) Lat,Lon (NPP) SZA (NPP ) Distance(km) Time Diff (sec)
1 11/06/2021 13:52:51 -70.23, 148.50 93.73 11/06/2021 13:51:37 -70.29, 148.21 93.67 12.64 74
2 11/06/2021 14:42:19 70.08, -44.07 86.13 11/06/2021 14:42:19 70.06, -44.13 86.12 2.83 0
3 11/06/2021 15:31:49 -69.96, 123.40 93.98 11/06/2021 15:33:01 -69.97, 123.32 93.97 3.11 72
4 11/09/2021 06:09:21 -70.14, -95.75 93.05 11/09/2021 06:08:33 -70.14, -95.80 93.04 1.66 48
5 11/09/2021 06:58:48 70.03, 71.75 86.86 11/09/2021 06:59:17 70.02, 71.70 86.85 2.49 29
6 11/11/2021 21:36:10 70.74,-146.61 88.31 11/11/2021 21:35:01 70.82,-148.44 88.38 67.57 69
7 11/11/2021 22:25:50 -70.09, 20.06 92.35 11/11/2021 22:25:31 -70.10, 20.03 92.34 1.58 19
8 11/11/2021 23:15:17 69.98,-172.45 87.55 11/11/2021 23:16:15 69.98,-172.48 87.55 1.16 58
9 11/14/2021 13:52:49 70.13, -31.63 88.40 11/14/2021 13:51:47 70.15, -31.61 88.42 2.37 62
10 11/14/2021 14:42:19 -70.02, 135.86 91.71 11/14/2021 14:42:28 -70.00, 135.93 91.72 3.60 9
11 11/14/2021 15:31:55 69.41, -57.33 87.69 11/14/2021 15:33:04 69.46, -55.96 87.75 54.05 69
12 11/17/2021 06:09:16 70.11, 84.23 89.04 11/17/2021 06:08:44 70.12, 84.21 89.05 1.18 32
13 11/17/2021 06:58:46 -70.01,-108.28 91.05 11/17/2021 06:59:26 -70.02,-108.33 91.04 2.51 40
14 11/19/2021 21:36:14 -70.36, 32.84 90.08 11/19/2021 21:35:02 -70.41, 32.20 90.04 24.29 72
15 11/19/2021 22:25:44 70.08,-159.92 89.64 11/19/2021 22:25:42 70.08,-159.98 89.65 2.35 2
16 11/19/2021 23:15:15 -69.93, 7.49 90.51 11/19/2021 23:16:23 -69.94, 7.56 90.50 2.80 68



Historial Predications of SNOs between LANDSAT-8 and NPP
